Weather History for KBLU - October, 2011

Change the Weather History Date:

Wednesday, October 5, 2011

  Actual Average Record
Temperature  
Mean Temperature 38 °F -  
Max Temperature 42 °F 69 °F 85 °F (1987)
Min Temperature 33 °F 51 °F 30 °F (2007)
Degree Days  
Heating Degree Days 28    
Moisture  
Dew Point 36 °F    
Average Humidity 96    
Maximum Humidity 100    
Minimum Humidity 81    
Precipitation  
Precipitation 1.93 in - - ()
Sea Level Pressure  
Sea Level Pressure 29.70 in    
Wind  
Wind Speed 15 mph (South)    
Max Wind Speed 26 mph    
Max Gust Speed 43 mph    
Visibility 2 miles    
Events Fog , Rain , Snow    
Averages and records for this station are not official NWS values.
T = Trace of Precipitation, MM = Missing Value Source: NWS Daily Summary

Daily Weather History Graph

Daily Weather History Graph

Search for Another Location

Airport or City:

Trip Planner

Search our weather history database for the weather conditions in past years. The results will help you decide how hot, cold, wet, or windy it might be!

Date:

Astronomy

Oct. 05, 2011 Rise Set
Actual Time 7:02 AM PDT 6:39 PM PDT
Civil Twilight 6:35 AM PDT 7:06 PM PDT
Nautical Twilight 6:04 AM PDT 7:37 PM PDT
Astronomical Twilight 5:33 AM PDT 8:08 PM PDT
Moon 3:20 PM PDT (10/5) 12:56 AM PDT (10/5)
Length of Visible Light 12h 30m
Length of Day
11h 36m
Waxing Gibbous, 67% of the Moon is Illuminated
Oct 5
Waxing Gibbous
Oct 11
Full
Oct 19
Last Quarter
Oct 26
New
Nov 2
First Quarter

Hourly Weather History & Observations

Time (PDT) Temp. Windchill Dew Point Humidity Pressure Visibility Wind Dir Wind Speed Gust Speed Precip Events Conditions
12:07 AM 39.2 °F 28.5 °F 39.2 °F 100% 29.74 in 0.8 mi SSE 24.2 mph 35.7 mph N/A Rain Light Rain
12:11 AM 39.2 °F 29.0 °F 39.2 °F 100% 29.74 in 1.5 mi South 21.9 mph 35.7 mph 0.02 in Rain Light Rain
12:36 AM 39.2 °F 30.2 °F 39.2 °F 100% 29.71 in 1.0 mi SSE 17.3 mph 32.2 mph 0.07 in Rain Rain
12:52 AM 39.9 °F 31.8 °F 39.9 °F 100% 29.63 in 0.2 mi South 15.0 mph 36.8 mph 0.11 in Fog , Rain Rain
1:08 AM 39.2 °F 30.5 °F 39.2 °F 100% 29.69 in 1.8 mi SSE 16.1 mph 33.4 mph 0.04 in Rain Rain
1:18 AM 41.0 °F 33.1 °F 39.2 °F 93% 29.68 in 0.8 mi SSE 15.0 mph 31.1 mph 0.06 in Rain Rain
1:30 AM 41.0 °F 31.1 °F 39.2 °F 93% 29.67 in 3.0 mi SSE 23.0 mph 29.9 mph 0.10 in Rain Rain
1:52 AM 41.0 °F 31.6 °F 39.9 °F 96% 29.59 in 2.5 mi South 20.7 mph 27.6 mph 0.19 in Rain Heavy Rain
2:00 AM 41.0 °F 33.5 °F 39.2 °F 93% 29.66 in 1.5 mi SSE 13.8 mph 27.6 mph 0.05 in Rain Heavy Rain
2:11 AM 41.0 °F 33.9 °F 39.2 °F 93% 29.63 in 1.0 mi SSE 12.7 mph 28.8 mph 0.11 in Rain Heavy Rain
2:22 AM 41.0 °F 33.9 °F 39.2 °F 93% 29.63 in 1.5 mi SSE 12.7 mph 25.3 mph 0.14 in Rain Rain
2:39 AM 41.0 °F 32.8 °F 39.2 °F 93% 29.62 in 1.0 mi South 16.1 mph 27.6 mph 0.23 in Rain Heavy Rain
2:47 AM 41.0 °F 33.9 °F 41.0 °F 100% 29.62 in 0.5 mi South 12.7 mph 25.3 mph 0.28 in Fog , Rain Heavy Rain
2:52 AM 41.0 °F 32.8 °F 41.0 °F 100% 29.54 in 0.5 mi South 16.1 mph 23.0 mph 0.31 in Fog , Rain Heavy Rain
3:52 AM 41.0 °F 32.5 °F 39.9 °F 96% 29.50 in 0.8 mi South 17.3 mph 27.6 mph 0.32 in Rain Heavy Rain
4:08 AM 41.0 °F 32.8 °F 39.2 °F 93% 29.58 in 1.5 mi South 16.1 mph 21.9 mph 0.18 in Rain Heavy Rain
4:21 AM 42.8 °F 34.5 °F 41.0 °F 93% 29.60 in 0.8 mi SSW 18.4 mph 39.1 mph 0.26 in Rain Heavy Rain
4:31 AM 42.8 °F 34.5 °F 41.0 °F 93% 29.60 in 1.0 mi SSW 18.4 mph 34.5 mph 0.34 in Rain Heavy Rain
4:47 AM 41.0 °F 30.5 °F 41.0 °F 100% 29.62 in 0.5 mi SSW 26.5 mph 42.6 mph 0.41 in Fog , Rain Light Rain
4:52 AM 41.0 °F 31.9 °F 41.0 °F 100% 29.55 in 0.5 mi South 19.6 mph 42.6 mph 0.41 in Fog , Rain Light Rain
5:07 AM 41.0 °F 30.9 °F 41.0 °F 100% 29.63 in 0.2 mi South 24.2 mph 36.8 mph 0.05 in Fog , Rain Light Rain
5:19 AM 39.2 °F 29.0 °F 39.2 °F 100% 29.63 in 0.8 mi SSW 21.9 mph 36.8 mph 0.05 in Rain Light Rain
5:38 AM 39.2 °F 30.2 °F 39.2 °F 100% 29.63 in 1.5 mi SSW 17.3 mph 29.9 mph 0.05 in Rain Light Rain
5:43 AM 39.2 °F 28.7 °F 39.2 °F 100% 29.63 in 0.8 mi South 23.0 mph 33.4 mph 0.06 in Rain Light Rain
5:54 AM 39.2 °F 30.2 °F 39.2 °F 100% 29.63 in 0.5 mi SSW 17.3 mph 35.7 mph 0.01 in Fog , Rain Light Rain
6:00 AM 39.2 °F 30.8 °F 39.2 °F 100% 29.63 in 1.5 mi South 15.0 mph 29.9 mph 0.02 in Rain Light Rain
6:05 AM 39.2 °F 29.8 °F 39.2 °F 100% 29.63 in 0.8 mi SSW 18.4 mph 32.2 mph 0.02 in Rain Rain
6:27 AM 37.4 °F 28.9 °F 37.4 °F 100% 29.64 in 1.5 mi SSW 13.8 mph 28.8 mph 0.11 in Rain Light Rain
6:32 AM 37.4 °F 28.2 °F 37.4 °F 100% 29.64 in 0.8 mi SSW 16.1 mph 26.5 mph 0.13 in Rain Heavy Rain
6:39 AM 37.4 °F 28.9 °F 37.4 °F 100% 29.64 in 1.5 mi SW 13.8 mph 26.5 mph 0.16 in Rain Heavy Rain
6:44 AM 37.4 °F 30.3 °F 37.4 °F 100% 29.64 in 0.8 mi SSW 10.4 mph 25.3 mph 0.20 in Rain Heavy Rain
7:09 AM 37.4 °F 30.3 °F 37.4 °F 100% 29.65 in 0.2 mi SW 10.4 mph 25.3 mph 0.02 in Fog Fog
7:47 AM 37.0 °F 31.0 °F 37.0 °F 100% 29.62 in 1.0 mi SW 8.1 mph 18.4 mph 0.02 in   Mist
8:00 AM 35.6 °F 27.1 °F 35.6 °F 100% 29.67 in 0.5 mi South 12.7 mph 17.3 mph 0.01 in Fog , Rain Light Rain
8:10 AM 35.6 °F 27.1 °F 33.8 °F 93% 29.67 in 1.5 mi South 12.7 mph 19.6 mph 0.03 in Rain Heavy Rain
8:14 AM 35.6 °F 25.2 °F 35.6 °F 100% 29.67 in 0.8 mi SSW 18.4 mph 28.8 mph 0.03 in Rain Light Rain
8:24 AM 35.6 °F 27.5 °F 35.6 °F 100% 29.68 in 0.2 mi SSW 11.5 mph 21.9 mph 0.03 in Fog Fog
8:52 AM 36.0 °F 29.0 °F 36.0 °F 100% 29.65 in 0.2 mi South 9.2 mph - 0.04 in Fog , Rain Light Rain
9:09 AM 35.6 °F 28.0 °F 35.6 °F 100% 29.69 in 0.5 mi SSW 10.4 mph 24.2 mph 0.03 in Fog , Rain Light Rain
9:16 AM 35.6 °F 28.0 °F 35.6 °F 100% 29.69 in 0.2 mi SSW 10.4 mph - 0.03 in Fog Fog
9:52 AM 36.0 °F 28.5 °F 35.1 °F 97% 29.68 in 0.2 mi SSW 10.4 mph 18.4 mph 0.05 in Fog Fog
10:18 AM 35.6 °F 28.0 °F 33.8 °F 93% 29.73 in 0.5 mi SSW 10.4 mph - 0.03 in Fog , Rain Heavy Rain
10:47 AM 35.6 °F 29.2 °F 33.8 °F 93% 29.74 in 0.2 mi SW 8.1 mph - 0.09 in Fog , Rain Light Rain
10:52 AM 35.1 °F 27.9 °F 35.1 °F 100% 29.71 in 0.2 mi SW 9.2 mph - 0.09 in Fog Fog
11:04 AM 35.6 °F 28.6 °F 35.6 °F 100% 29.75 in 1.0 mi SSW 9.2 mph - N/A   Mist
11:15 AM 35.6 °F 29.2 °F 35.6 °F 100% 29.75 in 2.0 mi SSW 8.1 mph - 0.00 in   Overcast
11:23 AM 35.6 °F 27.5 °F 35.6 °F 100% 29.75 in 10.0 mi South 11.5 mph 17.3 mph 0.00 in   Overcast
11:52 AM 36.0 °F 30.3 °F 34.0 °F 93% 29.72 in 8.0 mi South 6.9 mph 16.1 mph 0.00 in   Overcast
12:18 PM 37.4 °F 30.3 °F 35.6 °F 93% 29.76 in 10.0 mi South 10.4 mph - N/A   Overcast
12:52 PM 37.0 °F 28.9 °F 34.0 °F 89% 29.72 in 10.0 mi South 12.7 mph - N/A   Overcast
12:59 PM 37.4 °F 28.9 °F 33.8 °F 87% 29.76 in 10.0 mi South 13.8 mph 20.7 mph N/A   Mostly Cloudy
1:06 PM 39.2 °F 31.6 °F 33.8 °F 81% 29.76 in 10.0 mi South 12.7 mph - N/A   Mostly Cloudy
1:36 PM 37.4 °F 32.1 °F 35.6 °F 93% 29.77 in 10.0 mi Variable 6.9 mph - N/A   Overcast
1:49 PM 39.2 °F 32.5 °F 35.6 °F 87% 29.76 in 10.0 mi South 10.4 mph 16.1 mph N/A   Overcast
1:52 PM 37.9 °F 32.1 °F 35.1 °F 89% 29.71 in 10.0 mi South 8.1 mph - N/A   Overcast
2:09 PM 37.4 °F 29.8 °F 35.6 °F 93% 29.75 in 10.0 mi South 11.5 mph 19.6 mph N/A   Mostly Cloudy
2:16 PM 37.4 °F 29.8 °F 35.6 °F 93% 29.75 in 10.0 mi South 11.5 mph - N/A   Overcast
2:52 PM 39.0 °F 31.8 °F 36.0 °F 89% 29.70 in 10.0 mi South 11.5 mph 17.3 mph N/A   Overcast
3:30 PM 37.4 °F 29.3 °F 33.8 °F 87% 29.75 in 10.0 mi South 12.7 mph - N/A   Overcast
3:52 PM 37.0 °F 28.9 °F 35.1 °F 93% 29.71 in 5.0 mi South 12.7 mph 24.2 mph 0.02 in Rain Light Rain
4:25 PM 37.4 °F 32.8 °F 33.8 °F 87% 29.75 in 8.0 mi SSW 5.8 mph - 0.00 in Rain Light Rain
4:32 PM 35.6 °F 29.2 °F 33.8 °F 93% 29.76 in 2.5 mi SW 8.1 mph - 0.01 in Rain Heavy Rain
4:41 PM 33.8 °F 28.6 °F 33.8 °F 100% 29.76 in 1.0 mi WSW 5.8 mph 17.3 mph 0.04 in Snow Light Snow
4:43 PM 33.8 °F 27.7 °F 33.8 °F 100% 29.76 in 0.2 mi WSW 6.9 mph - 0.04 in Fog , Snow Light Snow
4:52 PM 34.0 °F 27.2 °F 33.1 °F 96% 29.73 in 0.2 mi WSW 8.1 mph - 0.04 in Fog , Snow Light Snow
5:12 PM 33.8 °F 28.6 °F 33.8 °F 100% 29.77 in 0.2 mi SW 5.8 mph - 0.00 in Fog , Snow Light Snow
5:52 PM 34.0 °F 25.5 °F 34.0 °F 100% 29.74 in 0.2 mi South 11.5 mph 16.1 mph 0.00 in Fog Fog
6:52 PM 33.1 °F 26.9 °F 33.1 °F 100% 29.77 in 0.2 mi SSE 6.9 mph - 0.01 in Fog Fog
7:31 PM 33.8 °F 27.7 °F 33.8 °F 100% 29.78 in 0.2 mi South 6.9 mph - 0.03 in Fog , Snow Light Snow
7:38 PM 33.8 °F 27.7 °F 33.8 °F 100% 29.78 in 0.2 mi South 6.9 mph - 0.03 in Fog , Rain Light Rain
7:52 PM 34.0 °F 27.2 °F 33.1 °F 96% 29.76 in 0.2 mi SSE 8.1 mph - 0.03 in Fog Fog
8:19 PM 33.8 °F 27.0 °F 32.0 °F 93% 29.78 in 0.2 mi SSE 8.1 mph - 0.01 in Fog , Snow Light Snow
8:50 PM 33.8 °F 27.0 °F 32.0 °F 93% 29.79 in 0.5 mi SSE 8.1 mph - 0.06 in Fog , Snow Light Snow
8:52 PM 33.1 °F 26.1 °F 32.0 °F 96% 29.78 in 0.5 mi SSE 8.1 mph - 0.06 in Fog , Snow Light Snow
9:37 PM 33.8 °F 27.0 °F 32.0 °F 93% 29.80 in 0.2 mi South 8.1 mph - 0.06 in Fog , Snow Snow
9:45 PM 33.8 °F 27.7 °F 32.0 °F 93% 29.80 in 0.5 mi South 6.9 mph - 0.07 in Fog , Snow Light Snow
9:52 PM 33.1 °F 25.5 °F 32.0 °F 96% 29.80 in 0.5 mi South 9.2 mph - 0.07 in Fog Fog
9:59 PM 33.8 °F 25.8 °F 33.8 °F 100% 29.80 in 0.2 mi South 10.4 mph - 0.00 in Fog , Rain Light Rain
10:12 PM 33.8 °F 26.4 °F 33.8 °F 100% 29.80 in 0.2 mi South 9.2 mph - 0.01 in Fog Fog
10:41 PM 33.8 °F 26.4 °F 32.0 °F 93% 29.80 in 0.2 mi South 9.2 mph - 0.03 in Fog , Snow Snow
10:52 PM 33.1 °F 26.1 °F 32.0 °F 96% 29.81 in 0.5 mi South 8.1 mph - 0.04 in Fog , Snow Light Snow
11:06 PM 33.8 °F 27.7 °F 32.0 °F 93% 29.81 in 0.2 mi South 6.9 mph - 0.00 in Fog , Snow Snow
11:19 PM 33.8 °F 28.6 °F 32.0 °F 93% 29.81 in 0.5 mi South 5.8 mph - 0.02 in Fog , Snow Snow
11:52 PM 33.1 °F 30.0 °F 32.0 °F 96% 29.81 in 0.8 mi South 3.5 mph - 0.12 in Snow Light Snow